Weather History for Hettinger, ND

Change the Weather History Date:

Saturday, February 2, 2013

  Actual Average Record
Temperature  
Mean Temperature 31 °F -  
Max Temperature 38 °F 29 °F 54 °F (2005)
Min Temperature 24 °F 7 °F -24 °F (2011)
Degree Days  
Heating Degree Days 34 47  
Month to date heating degree days 79 94  
Since 1 July heating degree days 4967 5170  
Moisture  
Dew Point 26 °F    
Average Humidity 82    
Maximum Humidity 92    
Minimum Humidity 64    
Precipitation  
Precipitation 0.03 in 0.02 in 0.03 in (2013)
Month to date precipitation 0.03 0.04  
Year to date precipitation 0.06 0.35  
Sea Level Pressure  
Sea Level Pressure 30.09 in    
Wind  
Wind Speed 18 mph (WNW)    
Max Wind Speed 40 mph    
Max Gust Speed 49 mph    
Visibility 7 miles    
Events Snow    
T = Trace of Precipitation, MM = Missing Value Source: NWS Daily Summary

Daily Weather History Graph

Daily Weather History Graph

Search for Another Location

Airport:

Trip Planner

Search our weather history database for the weather conditions in past years. The results will help you decide how hot, cold, wet, or windy it might be!

Date:

Astronomy

Feb. 02, 2013 Rise Set
Actual Time 7:11 AM MST 4:58 PM MST
Civil Twilight 6:39 AM MST 5:29 PM MST
Nautical Twilight 6:03 AM MST 6:05 PM MST
Astronomical Twilight 5:28 AM MST 6:40 PM MST
Moon No Moon Rise 9:57 AM MST
Length of Visible Light 10h 50m
Length of Day
9h 46m
Waning Gibbous, 59% of the Moon is Illuminated
Feb 2
Waning Gibbous
Feb 3
Last Quarter
Feb 10
New
Feb 17
First Quarter
Feb 25
Full

Hourly Weather History & Observations

Time (MST) Temp. Windchill Dew Point Humidity Pressure Visibility Wind Dir Wind Speed Gust Speed Precip Events Conditions
12:15 AM 24.8 °F 19.1 °F 23.0 °F 93% 30.03 in 2.5 mi West 4.6 mph - 0.00 in Snow Light Snow
12:31 AM 28.4 °F 21.2 °F 24.8 °F 86% 30.02 in 4.0 mi WNW 6.9 mph - 0.00 in Snow Light Snow
12:45 AM 28.4 °F 23.3 °F 26.6 °F 93% 30.02 in 1.8 mi WNW 4.6 mph - 0.00 in Snow Light Snow
12:53 AM 28.0 °F 21.7 °F 26.1 °F 92% 30.11 in 2.5 mi West 5.8 mph - 0.00 in Snow Light Snow
1:03 AM 28.4 °F 23.3 °F 26.6 °F 93% 30.02 in 1.8 mi WNW 4.6 mph - 0.00 in Snow Light Snow
1:11 AM 28.4 °F 23.3 °F 26.6 °F 93% 30.02 in 0.8 mi West 4.6 mph - 0.01 in Snow Light Snow
1:29 AM 28.4 °F 22.2 °F 26.6 °F 93% 30.01 in 1.2 mi West 5.8 mph - 0.02 in Snow Light Snow
1:51 AM 28.4 °F 22.2 °F 26.6 °F 93% 30.02 in 3.0 mi West 5.8 mph - 0.03 in Snow Light Snow
2:35 AM 32.0 °F 22.1 °F 28.4 °F 87% 30.01 in 9.0 mi West 13.8 mph - 0.00 in   Overcast
2:53 AM 33.1 °F 23.9 °F 30.0 °F 89% 30.09 in 10.0 mi West 12.7 mph - 0.00 in   Overcast
3:45 AM 32.0 °F 20.8 °F 28.4 °F 87% 30.01 in 10.0 mi West 17.3 mph 21.9 mph N/A   Overcast
3:53 AM 32.0 °F 20.8 °F 28.0 °F 85% 30.09 in 10.0 mi West 17.3 mph 25.3 mph N/A   Overcast
4:08 AM 30.2 °F 18.9 °F 28.4 °F 93% 30.01 in 10.0 mi WNW 16.1 mph - N/A   Overcast
4:19 AM 30.2 °F 18.5 °F 26.6 °F 86% 30.01 in 10.0 mi WNW 17.3 mph - N/A   Overcast
5:53 AM 32.0 °F 22.1 °F 27.0 °F 82% 30.07 in 10.0 mi WNW 13.8 mph - N/A   Overcast
6:05 AM 30.2 °F 18.9 °F 26.6 °F 86% 30.00 in 10.0 mi West 16.1 mph - N/A   Overcast
6:53 AM 30.0 °F 19.5 °F 26.1 °F 85% 30.07 in 10.0 mi West 13.8 mph - N/A   Overcast
7:53 AM 32.0 °F 22.1 °F 26.1 °F 79% 30.08 in 10.0 mi WNW 13.8 mph - N/A   Mostly Cloudy
8:53 AM 33.1 °F 22.2 °F 25.0 °F 72% 30.09 in 10.0 mi WNW 17.3 mph - N/A   Overcast
9:29 AM 33.8 °F 21.3 °F 26.6 °F 75% 30.02 in 1.8 mi WNW 24.2 mph 38.0 mph 0.00 in Snow Light Snow
9:41 AM 33.8 °F 21.3 °F 28.4 °F 81% 30.02 in 1.0 mi WNW 24.2 mph 32.2 mph 0.00 in Snow Light Snow
9:48 AM 32.0 °F 19.2 °F 28.4 °F 87% 30.02 in 0.8 mi WNW 23.0 mph 35.7 mph 0.00 in Snow Light Snow
9:53 AM 32.0 °F 18.4 °F 28.9 °F 88% 30.10 in 0.8 mi WNW 26.5 mph 35.7 mph 0.00 in Snow Light Snow
10:11 AM 33.8 °F 21.0 °F 28.4 °F 81% 30.02 in 1.2 mi WNW 25.3 mph 35.7 mph 0.00 in Snow Light Snow
10:17 AM 33.8 °F 20.8 °F 28.4 °F 81% 30.02 in 3.0 mi WNW 26.5 mph 34.5 mph 0.00 in Snow Light Snow
10:28 AM 33.8 °F 21.3 °F 28.4 °F 81% 30.02 in 3.0 mi WNW 24.2 mph 36.8 mph 0.00 in Snow Light Snow
10:53 AM 34.0 °F 21.0 °F 28.9 °F 82% 30.10 in 10.0 mi West 26.5 mph 32.2 mph 0.00 in   Overcast
11:28 AM 35.6 °F 23.4 °F 28.4 °F 75% 30.02 in 10.0 mi WNW 25.3 mph 33.4 mph N/A   Overcast
11:53 AM 36.0 °F 22.4 °F 27.0 °F 70% 30.10 in 10.0 mi WNW 33.4 mph 42.6 mph N/A   Overcast
12:25 PM 35.6 °F 22.7 °F 26.6 °F 70% 30.03 in 10.0 mi WNW 28.8 mph 38.0 mph N/A   Overcast
12:53 PM 37.9 °F 24.6 °F 26.1 °F 62% 30.12 in 10.0 mi NW 36.8 mph 49.5 mph N/A   Overcast
1:53 PM 34.0 °F 19.9 °F 25.0 °F 70% 30.14 in 10.0 mi NW 32.2 mph 42.6 mph N/A   Partly Cloudy
2:53 PM 34.0 °F 20.8 °F 25.0 °F 70% 30.16 in 10.0 mi NW 27.6 mph 38.0 mph N/A   Mostly Cloudy
3:01 PM 33.8 °F 19.4 °F 24.8 °F 70% 30.09 in 10.0 mi NW 33.4 mph 44.9 mph N/A   Mostly Cloudy
3:53 PM 32.0 °F 17.9 °F 24.1 °F 73% 30.19 in 10.0 mi NW 28.8 mph 40.3 mph N/A   Mostly Cloudy
4:33 PM 30.2 °F 16.5 °F 23.0 °F 75% 30.11 in 10.0 mi NW 24.2 mph 33.4 mph N/A   Scattered Clouds
4:53 PM 28.9 °F 15.8 °F 23.0 °F 78% 30.21 in 10.0 mi NW 20.7 mph - N/A   Clear
5:53 PM 28.0 °F 14.6 °F 21.9 °F 78% 30.21 in 10.0 mi NW 20.7 mph - N/A   Clear
6:53 PM 26.1 °F 14.5 °F 21.0 °F 81% 30.22 in 10.0 mi NW 13.8 mph - N/A   Clear
7:53 PM 24.1 °F 13.7 °F 19.9 °F 84% 30.23 in 10.0 mi NW 10.4 mph - N/A   Partly Cloudy
8:53 PM 27.0 °F 18.0 °F 21.9 °F 81% 30.22 in 10.0 mi WNW 9.2 mph - N/A   Overcast
9:53 PM 26.1 °F 18.4 °F 21.9 °F 84% 30.22 in 10.0 mi WNW 6.9 mph - N/A   Overcast
10:53 PM 26.1 °F 20.5 °F 21.9 °F 84% 30.19 in 10.0 mi WNW 4.6 mph - N/A   Overcast
11:53 PM 26.1 °F 20.5 °F 23.0 °F 88% 30.18 in 10.0 mi West 4.6 mph - N/A   Overcast